F4MLU-13 Weather Reports


Display with metric or nautical units.
time (UTC)temp
F
wind
direction
speed
MPH
gust
MPH
rain 1hr
in
rain 24hr
in
rain mn
in
humidity
%
barometer
mb
20260504045030 54 162 0.0 0.0 0.00 0.16 0.00 99
20260504044029 54 163 0.0 0.0 0.00 0.16 0.00 99
20260504043030 55 163 0.0 0.0 0.00 0.16 0.00 99
20260504042030 55 163 0.0 0.0 0.00 0.16 0.00 99
20260504041029 55 163 0.0 0.0 0.00 0.16 0.00 99
20260504040030 55 163 0.0 0.0 0.00 0.16 0.00 99
20260504035031 54 159 0.0 0.0 0.00 0.16 0.00 99
20260504034030 54 167 0.0 0.0 0.00 0.16 0.00 99
20260504033050 54 166 0.0 0.0 0.00 0.16 0.00 99
20260504032030 54 165 0.0 0.0 0.00 0.16 0.00 99
20260504031030 54 132 0.0 0.0 0.00 0.16 0.00 99
20260504030050 54 132 0.0 0.0 0.00 0.16 0.00 99
20260504025030 54 128 0.0 0.0 0.00 0.16 0.00 99
20260504024030 54 128 0.0 0.0 0.00 0.16 0.00 99
20260504023050 53 128 0.0 0.0 0.00 0.16 0.00 99
20260504022030 53 128 0.0 0.0 0.00 0.16 0.00 99
20260504021030 53 128 0.0 0.0 0.00 0.16 0.00 99
20260504020029 52 128 0.0 0.0 0.00 0.16 0.00 99
20260504015030 53 128 0.0 0.0 0.00 0.16 0.00 99
20260504014030 53 128 0.0 0.0 0.00 0.16 0.00 99
20260504013030 52 128 0.0 0.0 0.00 0.16 0.00 99
20260504012030 53 128 0.0 0.0 0.00 0.16 0.00 99
20260504011100 53 128 0.0 0.0 0.00 0.16 0.00 99
20260504010030 53 128 0.0 0.0 0.00 0.16 0.00 99
20260504005030 53 128 0.0 0.0 0.00 0.16 0.00 99
20260504004030 54 128 0.0 0.0 0.00 0.16 0.00 99
20260504003030 54 127 0.0 0.0 0.00 0.16 0.00 99
20260504002030 54 127 0.0 0.0 0.00 0.16 0.00 99
20260504001030 54 127 0.0 0.0 0.00 0.16 0.00 99
20260504000030 54 127 0.0 0.0 0.00 0.16 0.00 99
20260503235030 54 127 0.0 0.0 0.00 0.16 0.00 99
20260503234030 54 127 0.0 0.0 0.00 0.16 0.00 99
20260503233031 54 127 0.0 0.0 0.00 0.16 0.00 99
20260503232030 54 127 0.0 0.0 0.00 0.16 0.00 99
20260503231030 54 138 0.0 0.0 0.00 0.16 0.00 99
20260503230051 54 138 0.0 0.0 0.00 0.16 0.00 99
20260503225030 54 138 0.0 0.0 0.00 0.16 0.00 99
20260503224030 55 138 0.0 0.0 0.00 0.16 0.00 99
20260503223050 55 138 0.0 0.0 0.00 0.16 0.00 99
20260503222030 56 138 0.0 0.0 0.00 0.16 0.00 99
20260503221030 56 138 0.0 0.0 0.00 0.16 0.00 99
20260503220031 56 138 0.0 0.0 0.00 0.16 0.00 99
20260503215030 56 138 0.0 0.0 0.00 0.16 0.16 99
20260503214031 56 138 0.0 0.0 0.00 0.16 0.16 99
20260503213050 56 138 0.0 0.0 0.00 0.16 0.16 99
20260503212030 56 138 0.0 0.0 0.00 0.16 0.16 99
20260503211030 56 138 0.0 0.0 0.00 0.16 0.16 98
20260503210050 57 153 0.0 0.0 0.00 0.16 0.16 98
20260503205030 56 143 0.0 0.0 0.00 0.16 0.16 98
20260503204031 56 166 0.0 0.0 0.00 0.16 0.16 98
20260503203030 56 157 0.0 0.0 0.00 0.16 0.16 98
20260503202030 56 157 0.0 0.0 0.00 0.16 0.16 97
20260503201030 56 157 0.0 0.0 0.00 0.16 0.16 97
20260503200100 57 157 0.0 0.0 0.16 0.16 0.16 97
20260503195051 57 157 0.0 0.0 0.16 0.16 0.16 96
20260503194031 57 149 0.0 0.0 0.16 0.16 0.16 96
20260503193031 57 148 0.0 0.0 0.16 0.16 0.16 95
20260503192131 58 148 0.0 0.0 0.16 0.16 0.16 94
20260503191030 59 148 0.0 0.0 0.16 0.16 0.16 92
20260503190051 61 143 0.0 0.0 0.00 0.00 0.00 87
20260503185031 62 153 0.0 0.0 0.00 0.00 0.00 85
20260503184031 62 243 0.0 0.0 0.00 0.00 0.00 89
20260503183111 62 147 0.0 0.0 0.00 0.00 0.00 89
20260503182030 63 154 0.0 0.0 0.00 0.00 0.00 88
20260503181031 63 148 0.0 0.0 0.00 0.00 0.00 88
20260503180031 63 148 0.0 0.0 0.00 0.00 0.00 88
20260503175030 64 144 0.0 0.0 0.00 0.00 0.00 87
20260503174031 64 145 0.0 0.0 0.00 0.00 0.00 86
20260503173031 64 153 0.0 0.0 0.00 0.00 0.00 86
20260503172031 64 129 0.0 0.0 0.00 0.00 0.00 86
20260503171101 65 141 0.0 0.0 0.00 0.00 0.00 86
20260503131031 69 123 0.0 0.0 0.00 0.00 0.00 77
20260503081032 68 142 0.0 0.0 0.00 0.00 0.00 77
20260503072032 59 143 0.0 0.0 0.00 0.00 0.00 95
20260503071032 59 148 0.0 0.0 0.00 0.00 0.00 94
20260503055032 54 146 0.0 0.0 0.00 0.00 0.00 99
20260503054032 53 146 0.0 0.0 0.00 0.00 0.00 99
20260503053032 53 146 0.0 0.0 0.00 0.00 0.00 99